Location: Worth Mountain WMA
(34.9569°N, 81.4819°W)
Time: 08:20:06
(UTC-05:00)

Terra - Pass Details

Date: 18 August 2017
Orbit: 702 x 703 km, 98.2° (Epoch: 23 November)

Event Time Altitude Azimuth Distance (km) Brightness Sun altitude
Exits shadow 22:45:07 20° 33° (NNE) 1,612 3.7 -28.4°
Drops below altitude 10° 22:47:03 10° 14° (NNE) 2,173 4.7 -28.7°
Sets 22:49:36 0° 2° (N) 3,095 5.7 -29.1°
